BEARDSLEY LAKE (BRD)

Elevation: 3398' · STANISLAUS R basin · Operator: US Bureau of Reclamation


Station comments:

04/14/2015Reservoir capacity updated from 77,600 to 97,800 from information found at http://ce-npdp-serv2.stanford.edu/DamDirectory/DamDetail.jsp?npdp_id=CA00263


Provisional data, subject to change.
Query executed Thursday at 2:42:18   clock

Select a sensor type for a plot of data.
Note: Reservoir Flows are daily averages.

Earlier

Date STORAGE    RES CHG    OUTFLOW    PPT INC   
 AF   AF   CFS   INCHES  
06/03/2015 54435 1313 61 0.00
06/04/2015 55713 1278 60 0.00
06/05/2015 57340 1627 60 0.07
06/06/2015 58029 689 68 0.40
06/07/2015 58761 732 61 0.14
06/08/2015 59286 525 172 0.00
06/09/2015 59717 431 207 0.00
06/10/2015 60068 351 198 0.00
06/11/2015 60373 305 203 0.19
06/12/2015 60714 341 197 0.00
06/13/2015 61031 317 201 0.00
06/14/2015 61373 342 202 0.00
06/15/2015 61728 355 202 0.00
06/16/2015 62047 319 201 0.00
06/17/2015 62300 253 203 0.00
06/18/2015 62294 -6 201 0.00
06/19/2015 62433 139 202 0.00
06/20/2015 62518 85 203 0.00
06/21/2015 62608 90 201 0.00
06/22/2015 62717 109 201 0.00
06/23/2015 62657 -60 203 0.00
06/24/2015 62614 -43 204 0.00
06/25/2015 62717 103 203 0.00
06/26/2015 62808 91 201 0.00
06/27/2015 62717 -91 -- --
06/28/2015 62632 -85 201 0.00
06/29/2015 62113 -519 202 0.00
06/30/2015 62305 192 311 0.00
07/01/2015 -- -- -- --
07/02/2015 -- -- -- --

Later | Latest

Warning! This data is preliminary and subject to revision.

Show BRD Map | Plot BRD Data | 1 Month BRD Data | Real-Time BRD Data | BRD Info